Location: Kershaw
(34.5481°N, 80.5823°W)
Time: 17:05:44
(UTC+00:00)

Transit 2A - Pass Details

Date: 09 October 2022
Orbit: 598 x 959 km, 66.7° (Epoch: 06 December)

Event Time Altitude Azimuth Distance (km) Brightness Sun altitude
Rises 10:55:11 0° 348° (NNW) 3,003 8.9 -6.6°
Reaches altitude 10° 10:57:51 10° 3° (N) 2,142 8.3 -6.0°
Maximum altitude 11:01:43 23° 56° (NE) 1,513 8.3 -5.2°
Drops below altitude 10° 11:05:54 10° 108° (ESE) 2,319 10.2 -4.4°
Sets 11:08:53 0° 123° (ESE) 3,317 10.6 -3.7°
